Flag for U.S.A. Weather past 2 weeks in Austin, Texas, U.S.A.

Now
70 °F

Sunny.


Feels Like: 74 °F
Forecast: 57 / 81 °F
Wind: 3 mph from East

Location: Camp Mabry / Austin City

Current Time: Oct 22, 2014 at 10:48:51 AM

Latest Report: Oct 22, 2014 at 9:51 AM


Visibility: 10 mi

Pressure: 30.12 "Hg

Humidity: 71%

Dew point: 60 °F

Location of AustinLocation

Historic Weather in Austin — Graph

°F

Austin temperature yesterday

Maximum temperature yesterday: 82 °F (at 3:51 PM)
Minimum temperature yesterday: 59 °F (at 7:51 AM)
Average temperature yesterday: 70 °F

Past Weeks' High & Low Weather Summary

 TemperatureHumidityPressure
High93 °F (Oct 7, 2:51 PM)97% (Oct 11, 7:56 AM)30.17 "Hg (Oct 11, 7:56 AM)
Low53 °F (Oct 14, 4:51 AM)21% (Oct 15, 1:51 PM)29.65 "Hg (Oct 13, 5:51 AM)
Average73 °F67%29.97 "Hg
* Reported Oct 7 8:51 AM — Oct 22 8:51 AM, Austin, Weather by CustomWeather, © 2014

Note: Actual official high and low records may vary slightly from our data, if they occured in-between our weather recording intervals... More about our weather records

Advertising

Austin weather history for previous 24 hours

 ConditionsComfort  
Time TempWeatherWind HumidityBarometerVisibility
8:51 AM
Oct 22
66 °FSunny.No wind81%30.10 "Hg10 mi
7:51 AM62 °FClear.No wind86%30.08 "Hg10 mi
6:51 AM62 °FClear.No wind86%30.06 "Hg10 mi
5:51 AM63 °FClear.3 mph81%30.04 "Hg10 mi
4:51 AM62 °FClear.No wind83%30.03 "Hg10 mi
3:51 AM63 °FClear.No wind81%30.03 "Hg10 mi
2:51 AM64 °FClear.No wind75%30.03 "Hg10 mi
1:51 AM65 °FClear.No wind73%30.03 "Hg10 mi
12:51 AM65 °FClear.No wind73%30.03 "Hg10 mi
11:51 PM
Oct 21
68 °FClear.No wind63%30.03 "Hg10 mi
10:51 PM67 °FClear.3 mph63%30.03 "Hg10 mi
9:51 PM68 °FClear.No wind57%30.03 "Hg10 mi
8:51 PM70 °FClear.3 mph51%30.02 "Hg10 mi
7:51 PM72 °FSunny.3 mph46%30.01 "Hg10 mi
6:51 PM74 °FSunny.3 mph41%29.99 "Hg10 mi
5:51 PM79 °FSunny.5 mph32%29.98 "Hg10 mi
4:51 PM80 °FSunny.7 mph30%29.98 "Hg10 mi
3:51 PM82 °FSunny.8 mph29%29.98 "Hg10 mi
2:51 PM79 °FSunny.7 mph41%29.99 "Hg10 mi
1:51 PM79 °FSunny.7 mph45%30.02 "Hg10 mi
12:51 PM78 °FSunny.5 mph52%30.05 "Hg10 mi
11:51 AM76 °FSunny.5 mph58%30.08 "Hg10 mi
10:51 AM73 °FSunny.5 mph59%30.08 "Hg10 mi
Weather by CustomWeather, © 2014

See weather overviewHow to use our weather pages